Location: Korczew
(51.3586°N, 19.4491°E)
Time: 17:18:48
(UTC+00:00)

Timation 1 Rocket - Pass Details

Date: 19 May 2025
Orbit: 895 x 909 km, 70.0° (Epoch: 20 June)

Event Time Altitude Azimuth Distance (km) Brightness Sun altitude
Exits shadow 21:47:15 18° 211° (SSW) 2,065 5.8 -17.8°
Maximum altitude 21:51:50 88° 299° (WNW) 911 4.3 -17.9°
Drops below altitude 10° 21:57:52 10° 32° (NNE) 2,598 7.4 -18.1°
Sets 22:00:22 0° 33° (NNE) 3,544 8.2 -18.2°
